Showing default

TEMPSAT 1, 1512

Orbit data source: Space-Track

TEMPSAT 1, 1512 is a payload satellite owned by NRL (US) in LEO that was launched on Fri, 13 Aug 1965 UTC via a THOR ABLESTAR launch vehicle from the Air Force Western Test Range (AFWTR). Payload-class satellites include a variety of spacecraft equipped with specific instruments for various scientific and technological missions. These include communications satellites like Starlink; space stations such as the ISS; scientific satellites like the Hubble; Earth observation satellites from companies like Planet Labs, Umbra, and HawkEye 360; GPS; miniature CubeSats for education and research; and military/defense satellites.

Loading next visibility...
Identifier
1512, 1965-065E
Orbit
LEO
Country
Flag of USUS
Related business
Manufacturer
NRL
Mission
Operational spacecraft
Bus & Motor
NRL 14", Unknown motor
Mass
9 kg wet, 9 kg dry
Launch date (UTC)
1965-08-13 (60 years ago)
Launch vehicle
THOR ABLESTAR
Launch site
Air Force Western Test Range (AFWTR)
Object type
Payload
Rocket body
Debris
Shape & HBR
Unknown
Radar Cross Section
Small (<0.1 m²)

Expand to show TLE details & history
Last TLE update: 12 hours ago

TLE from 12 hours ago
0 TEMPSAT 1
1  1512U 65065E   25302.52201713  .00000071  00000-0  12279-3 0  9996
2  1512  89.9897 212.7068 0069583 174.8899  10.9657 13.33576614929304
Epoch: 2025-10-29T12:31Z
TLE epoch observation values (Epoch: 2025-10-29T12:31:42.280Z)
Latitude
-6.15861°
Longitude
166.68779°
Altitude
1,085.932 km
Speed
7.334 km/s
True Right ascension
02h 10m 49s
True Declination
-6° 07' 25"
Sunlit
Object was in full shadow at epoch
Visualization orbit readout
Latitude
Unknown
Longitude
Unknown
Altitude
Unknown
Speed
Unknown
Apparent Right ascension
Unknown
Apparent Declination
Unknown
Sunlit
N/A
Visualization observer readout
Local Sidereal Time
20:09:07
Azimuth
Unknown
Elevation
Unknown
Doppler factor
Unknown
Orbital elements
Apogee altitude
1,182.623 km
Perigee altitude
1,078.13 km
Semi-major axis
7,508.513 km
Eccentricity
0.00696
Inclination
89.9897°
RAAN
212.7068°
Arg. of periapsis
174.8899°
True anomaly
11.11868°
Mean anomaly
10.9657°
Eccentric anomaly
11.04206°
Mean motion
3.33589 °/min
Orbital period
107.92 mins
BSTAR
0.00012279
Loading maneuver chart data...
Computing Atmospheric mass density...
Loading historical data...
Loading historical data...
Loading historical data...
Loading historical data...
Loading historical data...
Loading historical data...
Loading historical data...

Documentation

Showing up to 5 results
|